Location: Zagreb
(45.8000°N, 16.0000°E)
Time: 17:52:51
(UTC+01:00)

Vanguard 2 Rocket - Pass Details

Date: 18 December 2025
Orbit: 553 x 3287 km, 32.9° (Epoch: 17 January)

Event Time Altitude Azimuth Distance (km) Brightness Sun altitude
Rises 03:46:04 0° 181° (S) 6,503 11.2 -38.3°
Reaches altitude 10° 03:53:07 10° 163° (SSE) 5,895 11.1 -37.1°
Maximum altitude 04:02:22 16° 133° (SE) 5,686 11.3 -35.5°
Drops below altitude 10° 04:11:57 10° 103° (ESE) 6,198 11.9 -33.8°
Sets 04:19:33 0° 86° (E) 7,012 12.5 -32.5°
